Weather History for Quincy, IL

Change the Weather History Date:

Sunday, November 20, 2011

  Actual Average Record
Temperature  
Mean Temperature 37 °F 40 °F  
Max Temperature 41 °F 49 °F 74 °F (1942)
Min Temperature 33 °F 32 °F 8 °F (1914)
Degree Days  
Heating Degree Days 28 25  
Month to date heating degree days 402  
Since 1 July heating degree days 826  
Cooling Degree Days 0 0  
Month to date cooling degree days 0  
Year to date cooling degree days 1093  
Moisture  
Dew Point 30 °F    
Average Humidity 74    
Maximum Humidity 82    
Minimum Humidity 67    
Precipitation  
Precipitation 0.00 in 0.10 in 1.92 in (1979)
Month to date precipitation 2.04  
Year to date precipitation 34.10  
Sea Level Pressure  
Sea Level Pressure 30.20 in    
Wind  
Wind Speed 12 mph (North)    
Max Wind Speed 18 mph    
Max Gust Speed 20 mph    
Visibility 10 miles    
Events Rain    
T = Trace of Precipitation, MM = Missing Value Source: NWS Daily Summary

Daily Weather History Graph

Daily Weather History Graph

Search for Another Location

Airport:

Trip Planner

Search our weather history database for the weather conditions in past years. The results will help you decide how hot, cold, wet, or windy it might be!

Date:

Astronomy

Nov. 20, 2011 Rise Set
Actual Time 6:55 AM CST 4:45 PM CST
Civil Twilight 6:25 AM CST 5:14 PM CST
Nautical Twilight 5:52 AM CST 5:47 PM CST
Astronomical Twilight 5:20 AM CST 6:19 PM CST
Moon 1:24 AM CST (11/20) 1:34 PM CST (11/20)
Length of Visible Light 10h 48m
Length of Day
9h 49m
Waning Crescent, 27% of the Moon is Illuminated
Nov 20
Waning Crescent
Nov 25
New
Dec 2
First Quarter
Dec 10
Full
Dec 17
Last Quarter

Hourly Weather History & Observations

Time (CST) Temp. Windchill Dew Point Humidity Pressure Visibility Wind Dir Wind Speed Gust Speed Precip Events Conditions
12:08 AM 37.4 °F 28.9 °F 32.0 °F 81% 30.07 in 10.0 mi NW 13.8 mph - N/A   Mostly Cloudy
12:24 AM 37.4 °F 28.9 °F 32.0 °F 81% 30.08 in 10.0 mi NW 13.8 mph - N/A   Overcast
12:47 AM 37.4 °F 30.3 °F 30.2 °F 75% 30.09 in 10.0 mi NW 10.4 mph - N/A   Scattered Clouds
12:54 AM 36.0 °F 29.0 °F 30.9 °F 82% 30.10 in 10.0 mi NW 9.2 mph - N/A   Partly Cloudy
1:25 AM 35.6 °F 28.0 °F 30.2 °F 81% 30.10 in 10.0 mi NW 10.4 mph - N/A   Mostly Cloudy
1:49 AM 35.6 °F 28.0 °F 30.2 °F 81% 30.11 in 10.0 mi NNW 10.4 mph - N/A   Overcast
1:54 AM 36.0 °F 26.3 °F 28.9 °F 76% 30.12 in 10.0 mi NNW 16.1 mph 19.6 mph N/A   Overcast
2:27 AM 33.8 °F 25.3 °F 28.4 °F 81% 30.13 in 10.0 mi NNW 11.5 mph - N/A   Scattered Clouds
2:42 AM 33.8 °F 24.3 °F 28.4 °F 81% 30.13 in 10.0 mi NNW 13.8 mph - N/A   Mostly Cloudy
2:54 AM 34.0 °F 23.8 °F 27.0 °F 75% 30.13 in 10.0 mi NNW 16.1 mph - N/A   Overcast
3:54 AM 34.0 °F 24.6 °F 27.0 °F 75% 30.17 in 10.0 mi NNW 13.8 mph - N/A   Overcast
4:54 AM 34.0 °F 27.2 °F 27.0 °F 75% 30.18 in 10.0 mi NNW 8.1 mph - N/A   Overcast
5:54 AM 33.8 °F 25.3 °F 26.6 °F 75% 30.19 in 10.0 mi NNE 11.5 mph - N/A   Overcast
6:54 AM 34.0 °F 26.0 °F 27.0 °F 75% 30.22 in 10.0 mi North 10.4 mph - N/A   Overcast
7:54 AM 34.0 °F 23.0 °F 27.0 °F 75% 30.22 in 9.0 mi North 18.4 mph - N/A   Overcast
8:54 AM 35.1 °F 27.4 °F 28.0 °F 76% 30.26 in 9.0 mi NNE 10.4 mph - N/A   Overcast
9:54 AM 36.0 °F 29.6 °F 28.9 °F 76% 30.27 in 10.0 mi NNE 8.1 mph - N/A   Mostly Cloudy
10:54 AM 37.9 °F 30.9 °F 28.9 °F 70% 30.26 in 10.0 mi NE 10.4 mph - N/A   Overcast
11:54 AM 39.2 °F 32.5 °F 30.2 °F 70% 30.23 in 10.0 mi NNE 10.4 mph - N/A   Overcast
12:54 PM 41.0 °F 33.5 °F 30.9 °F 67% 30.22 in 10.0 mi NNE 13.8 mph - N/A   Mostly Cloudy
1:39 PM 39.2 °F 31.6 °F 30.2 °F 70% 30.24 in 10.0 mi North 12.7 mph - N/A   Mostly Cloudy
1:54 PM 39.9 °F 32.1 °F 30.0 °F 68% 30.25 in 10.0 mi NNE 13.8 mph - N/A   Overcast
2:10 PM 39.2 °F 32.0 °F 30.2 °F 70% 30.23 in 10.0 mi North 11.5 mph - N/A   Overcast
2:54 PM 39.9 °F 32.1 °F 30.9 °F 70% 30.23 in 10.0 mi NE 13.8 mph - 0.00 in Rain Light Rain
3:54 PM 39.9 °F 31.1 °F 30.9 °F 70% 30.22 in 10.0 mi NNE 17.3 mph - 0.00 in   Overcast
4:54 PM 41.0 °F 35.8 °F 32.0 °F 70% 30.24 in 10.0 mi NNE 8.1 mph - N/A   Overcast
5:52 PM 41.0 °F 35.8 °F 32.0 °F 70% 30.24 in 10.0 mi NE 8.1 mph - N/A   Overcast
5:54 PM 41.0 °F 35.8 °F 32.0 °F 70% 30.25 in 10.0 mi NE 8.1 mph - N/A   Overcast
6:15 PM 41.0 °F 35.8 °F 32.0 °F 70% 30.23 in 10.0 mi NE 8.1 mph - N/A   Overcast
6:54 PM 41.0 °F 35.2 °F 32.0 °F 70% 30.26 in 10.0 mi NNE 9.2 mph - N/A   Overcast
7:54 PM 41.0 °F 35.2 °F 32.0 °F 70% 30.26 in 10.0 mi NNE 9.2 mph - N/A   Overcast
8:54 PM 39.9 °F 34.5 °F 32.0 °F 73% 30.26 in 10.0 mi NNE 8.1 mph - N/A   Overcast
9:13 PM 39.2 °F 33.6 °F 33.8 °F 81% 30.24 in 10.0 mi NNE 8.1 mph - N/A   Overcast
9:54 PM 39.9 °F 35.1 °F 33.1 °F 77% 30.26 in 10.0 mi NE 6.9 mph - N/A   Overcast
10:54 PM 41.0 °F 35.2 °F 33.1 °F 73% 30.23 in 10.0 mi NE 9.2 mph - N/A   Overcast
11:54 PM 41.0 °F 36.4 °F 33.1 °F 73% 30.23 in 10.0 mi NE 6.9 mph - N/A   Overcast